Weather in Shagonar

Russia / Tyva Republic     51°32′04″N   92°55′11″E
temp.,
°C
wind,
m/s
gust,
m/s
humid.,
%
clouds,
%
prec.,
mm/h
press.,
hPa
HPBL,
m
20 january, wed
wed2001:00−21sw118897 0.0 102521
04:00−21sw118998 0.0 102320
07:00−19wsw019599 0.1 102628
10:00−19e119796 0.1 102733
13:00−15w009294 0.2 1028115
16:00−16ne019795 0.0 102823
19:00−19e019786 0.1 103120
22:00−19se019997 0.1 103220
21 january, thu
thu2101:00−19e019998 0.1 103320
04:00−20e1199100 0.1 103220
07:00−20ene1197100 0.1 103126
10:00−19ssw1196100 0.0 103076
13:00−17wnw1193100 0.1 1028219
16:00−18ne0196100 0.0 102727
19:00−19ssw1196100 0.1 102721
22:00−19ssw1197100 0.0 102629
22 january, fri
fri2201:00−20sw1198100 0.1 102420
04:00−22wsw119990 0.0 102320
07:00−21sse119895 0.1 102124
10:00−20ssw119798 0.0 102027
13:00−17wsw119199 0.0 1018216
16:00−17w1194100 0.0 101832
19:00−19wnw1198100 0.0 101826
22:00−20sw1299100 0.0 101721
23 january, sat
sat2301:00−19nnw0199100 0.1 101734
04:00−19ssw1297100 0.1 101930
07:00−20sw0096100 0.1 102120
10:00−17nne1197100 0.3 102567
13:00−15wsw1195100 0.4 1026105
16:00−13ne0195100 0.3 102769
19:00−13wsw2297100 0.7 102945
22:00−13nne1194100 0.6 103020
24 january, sun
sun2401:00−14ene0186100 0.6 103121
04:00−13ne0087100 0.1 103321
07:00−15s0187100 0.1 103321
10:00−14s0188100 0.1 103522
13:00−12wsw1288100 0.1 1034246
16:00−13sw0195100 0.1 103443
19:00−16ese1190100 0.2 103720
22:00−19ese118396 0.0 103820